Forecast Directory
U.S. Alerts
El Dorado Weather Logo
U.S. Radar Loop Conditions Map

U.S. Color Satellite North America Color Infrared Animated Satellite Loop

Interactive Wx Map Live U.S. Google Map Radar Thumbnail Image

US Precipitation 1 day, 24 hour precipitation map

US Temperatures US Conditions Map

US Climate Data US Conditions Map


NOAA NWS Hourly Roundups by Site
Regional Weather Roundup for Sacramento, CA
Select Site:  

000
ASUS46 KSTO 202215
RWRCA

NORTHERN AND CENTRAL CA REGIONAL WEATHER ROUNDUP
NATIONAL WEATHER SERVICE SACRAMENTO CA
300 PM PDT SAT JUL 20 2019

NOTE: FAIR INDICATES FEW OR NO CLOUDS BELOW 12,000 FEET WITH NO
SIGNIFICANT WEATHER AND/OR OBSTRUCTIONS TO VISIBILITY.

CAZ001-003-202300-
NORTHWEST AREA

CITY           SKY/WX    TMP DP  RH WIND       PRES   REMARKS
CRESCENT CITY  MOSUNNY   59  52  77 S12       29.97S
UKIAH          SUNNY     85  57  38 VRB6      29.87F
$$

CAZ006-505>513-202300-
BAY AREA

CITY           SKY/WX    TMP DP  RH WIND       PRES   REMARKS
SANTA ROSA     SUNNY     72  57  59 S8        29.92F
SAN RAFAEL     N/A      MM  MM  MM MISG
NAPA           SUNNY     74  58  57 S17       29.90F
CONCORD        SUNNY     77  51  40 W8G18     29.90F
OAKLAND CITY   N/A       69  MM  MM MISG
OAKLAND        MOSUNNY   70  56  61 NW16      29.93F
SAN FRAN CITY  N/A       65  MM  67 MISG
SAN FRAN ARPT  MOSUNNY   70  55  59 NW22      29.91F
LIVERMORE      SUNNY     79  54  41 NW15      29.88F
HAYWARD        SUNNY     72  56  57 W15       29.92F
REDWOOD CITY   N/A       77  MM  51 MISG
MOFFETT ARPT   SUNNY     76  56  49 NW14      29.91F
SAN JOSE ARPT  MOSUNNY   78  58  49 NW9       29.89F
$$
CAZ034-037-514>518-202300-
CENTRAL COAST

CITY           SKY/WX    TMP DP  RH WIND       PRES   REMARKS
WATSONVILLE    SUNNY     69  54  58 W14       29.96F
SALINAS        SUNNY     70  54  56 NW13      29.94F
MONTEREY       SUNNY     70  53  54 W13       29.95F
SAN LUIS OBISP SUNNY     71  54  54 S8        29.93F
SANTA MARIA    SUNNY     74  57  55 NW9G23    29.94F
$$
CAZ015-016-202300-
NORTHERN SACRAMENTO VALLEY

CITY           SKY/WX    TMP DP  RH WIND       PRES   REMARKS
REDDING        SUNNY     95  47  19 W6        29.81F HX  91
RED BLUFF      SUNNY     92  51  24 S8        29.83F
OROVILLE       SUNNY     91  57  31 VRB5      29.86F
$$
CAZ016>018-202300-
SOUTHERN SACRAMENTO VALLEY

CITY           SKY/WX    TMP DP  RH WIND       PRES   REMARKS
AUBURN         SUNNY     84  54  34 CALM      29.92S
BEALE AFB      SUNNY     88  53  30 S7        29.84F
LINCOLN        FAIR      90  52  27 CALM      29.84F
MARYSVILLE     SUNNY     88  58  36 S9        29.85F
PLACERVILLE    FAIR      82  52  34 W8        29.99S
SAC INTL ARPT  MOSUNNY   86  57  37 SW9       29.84F
MATHER AIRPORT SUNNY     86  54  32 SW10      29.85F
DOWNTOWN SAC   N/A       86  MM  MM MISG
SAC EXEC ARPT  SUNNY     82  58  43 SW9       29.86F
VACAVILLE      SUNNY     85  60  42 S14G20    29.86F
TRAVIS AFB     SUNNY     81  58  44 SW21      29.86F
$$
CAZ019>021-202300-
SAN JOAQUIN VALLEY

CITY           SKY/WX    TMP DP  RH WIND       PRES   REMARKS
STOCKTON       SUNNY     86  55  34 NW12      29.86F
MODESTO        SUNNY     87  57  35 N9        29.84F
MERCED         SUNNY     90  58  33 W8        29.83F
LEMOORE        MOSUNNY   92  54  27 CALM      29.82F HX  90
FRESNO         MOSUNNY   92  54  27 VRB7      29.83F HX  90
HANFORD        SUNNY     91  56  30 N3        29.83F
PORTERVILLE      N/A     92  60  34 NW10      29.84F HX  91
BAKERSFIELD    SUNNY     92  57  30 NW10      29.82F HX  90
$$
CAZ011-012-071-202300-
NORTHERN MOUNTAINS

CITY           SKY/WX    TMP DP  RH WIND       PRES   REMARKS
YREKA          SUNNY     90  46  21 VRB3      29.92F
MOUNT SHASTA   SUNNY     87  44  22 CALM      29.98F
ALTURAS        SUNNY     88  41  19 W10G18    30.00F
$$
CAZ011-012-071-202300-
SIERRA NEVADA MTNS

CITY           SKY/WX    TMP DP  RH WIND       PRES   REMARKS
BLUE CANYON    SUNNY     72  50  45 SW7       30.13S
TRUCKEE          N/A     82  48  30 W13       30.10F
TAHOE VLY ARPT SUNNY     80  49  33 VRB7      30.12F
MAMMOTH LAKES  FAIR      84  35  17 E7        30.16S
$$


 

View Past Reports for Sacramento, CA.

Products Courtesy of NOAA-NWS
NWS Information Parsing Script by Ken True at Saratoga Weather - Script by SE Lincoln Weather.

Google


Contact Us | Mobile
Never base any life decisions on weather information from this site or anywhere over the Internet.
Site is dedicated to our Lord & Savior Jesus Christ | Random Quotes

Copyright © 2019 El Dorado Weather, Inc. | Site Designed By:  El Dorado Weather